2023-006D (55245 NORAD) Tracking and Keplerian Element Data

This shows tracking and keplerian element data for the satellite.

Feedback or suggestion? Click here.




ElementValue
Catalog55245
Name2023-006D
Epoch Orbit11
Epoch Day14.29827125
Epoch Year2023
RAAN200.743
Inclination43.2
Eccentricity0.0007558
Argument of Perigee276.9848
Mean Anonmoly272.8061
Mean Motion15.1623962
Decay Rate0.00018885
L11 55245U 23006D 23014.29827125 .00018885 00000+0 96800-3 0 9993
L22 55245 43.2000 200.7430 0007558 276.9848 272.8061 15.16239620 110



Live tracking and technical data element details for 2023-006D (NORAD 55245). 2023-006D can be tracked NOW for your location showing map with azimuth and elevation plus other details from your city location.







IsCatalogInMostPopularTable: catalog: 55245, numindb: 30
Update: records affected: 1



GetName: 55245 2023-006D

Hit Count: updated at: Tue, 07 Feb 2023 13:46:12 GMT